Tracking 21992 objects as of 28-Nov-2020
HD Live streaming from Space Station
objects crossing your sky now

STARLINK-1899

Track STARLINK-1899 now!
10-day predictions
STARLINK-1899 is classified as:


NORAD ID: 46787
Int'l Code: 2020-074BA
Perigee: 386.2 km
Apogee: 387.5 km
Inclination: 53.1 °
Period: 92.1 minutes
Semi major axis: 6757 km
RCS: Unknown
Launch date: October 24, 2020
Source: United States (US)
Launch site: AIR FORCE EASTERN TEST RANGE (AFETR)
aabbcc
Your satellite tracking list
Your tracking list is empty




NASA's NSSDC Master Catalog

Two Line Element Set (TLE):
1 46787U 20074BA  20333.91667824 -.00013279  00000-0 -13949-3 0  9992
2 46787  53.0542 347.3526 0000951  76.4258 123.4889 15.62742931  5718
Source of the keplerian elements: AFSPC